Location: Aragüita
(10.0436°N, 67.8028°W)
Time: 23:50:24
(UTC+00:00)

Cosmos 1862 Rocket - Visible Passes

Search period start: 15 January 2026 00:00
Search period end: 25 January 2026 00:00
Orbit: 598 x 626 km, 82.5° (Epoch: 15 January)

Date Brightness Start Highest point End Pass type
(mag) Time Alt. Az. Time Alt. Az. Time Alt. Az.
15 Jan 6.8 10:20:23 10° ENE 10:21:47 11° E 10:23:12 10° ESE visible
16 Jan 6.0 00:08:54 10° SW 00:12:20 22° W 00:15:45 10° NNW visible
16 Jan 4.4 22:46:00 10° SSE 22:49:53 30° E 22:53:45 10° NNE visible
17 Jan 6.8 00:26:34 10° W 00:27:24 10° W 00:28:14 10° WNW visible
17 Jan 3.6 23:00:28 10° S 23:04:51 65° E 23:09:14 10° NNE visible
18 Jan 4.3 23:15:31 10° SSW 23:19:52 57° W 23:24:12 10° N visible
19 Jan 5.8 23:31:09 10° SW 23:34:53 27° W 23:38:38 10° NNW visible
20 Jan 6.3 09:56:18 10° NE 09:59:23 19° E 10:02:28 10° SE visible
20 Jan 6.6 23:47:50 10° WSW 23:49:57 13° W 23:52:03 10° NW visible
21 Jan 5.0 10:10:24 10° NNE 10:14:25 40° E 10:18:26 10° SSE visible
22 Jan 3.5 10:25:09 10° N 10:29:25 89° WNW 10:33:42 10° S visible
23 Jan 5.5 22:53:27 10° SSW 22:57:26 33° W 23:01:26 10° NNW visible
24 Jan 6.4 09:19:20 10° NE 09:21:54 16° E 09:24:28 10° ESE visible
24 Jan 6.5 23:09:42 10° WSW 23:12:30 16° W 23:15:16 10° NW visible
